EW7321 Gulfport FL US current weather conditions

sailwx.info

Wind from 356 at 0 knots gusting 6

Air temperature 18.3° C
Dewpoint 14.0° C

Last reported at 2019-Mar-19 01:08 UTC.
Time now 2019-Mar-19 01:55 UTC

Location: N 27°45' W 082°42'.
View on Google Maps.

See reports from other nearby stations

  
Tides and Currents Weather Stations Pressure Air Temp Water Temp Dewpoint Dewpoint Depression Visibility Wind Speed Wind Dir Waves Ship Positions
date/time (UTC)wind fromknots sea level pressurealtimeterstation pressurevisibilityair tempwater tempwave heightnotes
2019-Mar-19 01:08 356 0 gusting 6 18.3
2019-Mar-19 01:03 345 0 gusting 6 18.3
2019-Mar-19 00:58 019 18.3
2019-Mar-19 00:53 005 18.3
2019-Mar-19 00:48 044 18.3
2019-Mar-19 00:43 060 18.3
2019-Mar-19 00:38 289 0 gusting 4 18.3
2019-Mar-19 00:33 328 0 gusting 3 18.9
2019-Mar-19 00:28 051 18.9
2019-Mar-19 00:23 037 18.9
2019-Mar-19 00:18 030 18.9
2019-Mar-19 00:13 070 19.4
2019-Mar-19 00:08 338 0 gusting 5 19.4
2019-Mar-19 00:03 323 0 gusting 5 19.4
2019-Mar-18 23:58 079 0 gusting 6 19.4
2019-Mar-18 23:53 029 1 gusting 7 20.0
2019-Mar-18 23:48 084 0 gusting 7 20.0
2019-Mar-18 23:43 035 0 gusting 5 20.0
2019-Mar-18 23:38 345 0 gusting 6 20.6
2019-Mar-18 23:33 063 1 gusting 6 20.6
2019-Mar-18 23:28 076 2 gusting 8 20.6
2019-Mar-18 23:23 053 2 gusting 8 20.6
2019-Mar-18 23:18 034 0 gusting 5 20.6
2019-Mar-18 23:13 110 0 gusting 5 20.6
2019-Mar-18 23:08 071 0 gusting 3 20.6
2019-Mar-18 23:03 353 0 gusting 6 20.6
2019-Mar-18 22:58 077 0 gusting 6 20.6
2019-Mar-18 22:53 115 0 gusting 4 20.6
2019-Mar-18 22:48 098 0 gusting 5 21.1
2019-Mar-18 22:43 316 0 gusting 5 21.1
2019-Mar-18 22:38 345 21.1
2019-Mar-18 22:33 309 0 gusting 3 21.1
2019-Mar-18 22:28 302 0 gusting 3 21.1
2019-Mar-18 22:23 093 0 gusting 4 21.1
2019-Mar-18 22:18 311 0 gusting 4 21.1
2019-Mar-18 22:13 352 21.1
2019-Mar-18 22:08 335 21.1
2019-Mar-18 22:03 336 21.1
2019-Mar-18 21:58 345 0 gusting 3 21.1
2019-Mar-18 21:53 232 0 gusting 6 21.1
2019-Mar-18 21:48 298 1 gusting 6 21.7
2019-Mar-18 21:43 338 0 gusting 4 21.7
2019-Mar-18 21:38 331 0 gusting 3 21.7
2019-Mar-18 21:33 345 0 gusting 3 21.7
2019-Mar-18 21:28 345 0 gusting 4 21.7
2019-Mar-18 21:23 336 1 gusting 4 21.7
2019-Mar-18 21:18 329 0 gusting 4 21.7
2019-Mar-18 21:13 344 1 gusting 6 21.7
2019-Mar-18 21:08 333 1 gusting 6 21.7
2019-Mar-18 21:03 332 0 gusting 4 21.7
2019-Mar-18 20:58 009 0 gusting 2 21.7
2019-Mar-18 20:53 316 0 gusting 4 21.7
2019-Mar-18 20:48 324 0 gusting 4 21.7
2019-Mar-18 20:43 327 0 gusting 6 21.7
2019-Mar-18 20:38 068 0 gusting 6 22.2
2019-Mar-18 20:33 320 0 gusting 4 22.2
2019-Mar-18 20:28 319 0 gusting 7 22.2
2019-Mar-18 20:23 298 0 gusting 7 22.2
2019-Mar-18 20:18 304 0 gusting 5 22.2
2019-Mar-18 20:13 320 0 gusting 4 22.2
2019-Mar-18 20:08 056 0 gusting 3 22.8
2019-Mar-18 20:03 326 0 gusting 3 22.8
2019-Mar-18 19:58 039 0 gusting 4 22.8
2019-Mar-18 19:53 352 0 gusting 4 22.8
2019-Mar-18 19:47 311 0 gusting 6 22.8
2019-Mar-18 19:42 181 1 gusting 6 22.8
2019-Mar-18 19:37 001 1 gusting 5 22.2
2019-Mar-18 19:32 303 1 gusting 4 22.2
2019-Mar-18 19:27 320 2 gusting 5 22.2
2019-Mar-18 19:22 318 2 gusting 6 22.2
2019-Mar-18 19:17 356 1 gusting 6 22.8
2019-Mar-18 19:12 337 1 gusting 6 22.2
2019-Mar-18 19:07 336 1 gusting 6 22.2
2019-Mar-18 19:02 105 1 gusting 6 22.2
2019-Mar-18 18:57 312 1 gusting 5 22.2
2019-Mar-18 18:52 006 1 gusting 5 22.2
2019-Mar-18 18:47 289 1 gusting 4 22.8
2019-Mar-18 18:42 356 1 gusting 6 22.8
2019-Mar-18 18:37 091 0 gusting 6 22.8
2019-Mar-18 18:32 324 1 gusting 6 22.2
2019-Mar-18 18:27 335 1 gusting 6 22.2
2019-Mar-18 18:22 074 0 gusting 5 22.2
2019-Mar-18 18:17 030 0 gusting 5 22.2
2019-Mar-18 18:12 351 0 gusting 6 22.2
2019-Mar-18 18:07 096 1 gusting 6 22.2
2019-Mar-18 18:02 060 1 gusting 6 22.2
2019-Mar-18 17:57 325 1 gusting 6 22.2
2019-Mar-18 17:52 100 1 gusting 6 22.2
2019-Mar-18 17:47 081 0 gusting 4 22.2
2019-Mar-18 17:42 089 1 gusting 6 21.7
2019-Mar-18 17:37 326 2 gusting 6 21.7
2019-Mar-18 17:32 331 2 gusting 6 21.7
2019-Mar-18 17:27 002 1 gusting 6 21.7
2019-Mar-18 17:22 335 0 gusting 6 21.7
2019-Mar-18 17:17 321 0 gusting 6 21.7
2019-Mar-18 17:12 105 1 gusting 6 21.1
2019-Mar-18 17:07 030 2 gusting 6 21.1
2019-Mar-18 17:02 084 1 gusting 5 21.1
2019-Mar-18 16:57 326 1 gusting 6 21.1
2019-Mar-18 16:52 045 1 gusting 6 21.1
2019-Mar-18 16:47 017 2 gusting 6 20.6
2019-Mar-18 16:42 340 2 gusting 6 20.6
2019-Mar-18 16:37 351 2 gusting 8 20.6
2019-Mar-18 16:32 342 1 gusting 7 20.6
2019-Mar-18 16:27 346 1 gusting 7 20.6
2019-Mar-18 16:22 143 1 gusting 7 20.6
2019-Mar-18 16:17 342 1 gusting 7 20.6
2019-Mar-18 16:12 316 1 gusting 6 20.6
2019-Mar-18 16:07 356 1 gusting 6 20.0
2019-Mar-18 16:00 318 0 gusting 6 20.0
2019-Mar-18 15:55 023 1 gusting 5 20.0
2019-Mar-18 15:50 077 1 gusting 6 19.4
2019-Mar-18 15:45 086 1 gusting 6 19.4
2019-Mar-18 15:40 019 1 gusting 6 19.4
2019-Mar-18 15:35 337 0 gusting 5 19.4
2019-Mar-18 15:30 338 0 gusting 5 19.4
2019-Mar-18 15:25 355 0 gusting 7 19.4
2019-Mar-18 15:20 307 1 gusting 7 18.9
2019-Mar-18 15:15 103 1 gusting 7 18.9
2019-Mar-18 15:10 116 1 gusting 9 18.9
2019-Mar-18 15:05 002 1 gusting 9 18.9
2019-Mar-18 15:00 319 1 gusting 6 18.3
2019-Mar-18 14:55 013 0 gusting 5 18.3
2019-Mar-18 14:50 109 1 gusting 5 18.3
2019-Mar-18 14:45 355 1 gusting 5 17.8
2019-Mar-18 14:40 330 1 gusting 5 17.8
2019-Mar-18 14:35 217 1 gusting 5 17.2
2019-Mar-18 14:30 146 1 gusting 5 17.2
2019-Mar-18 14:25 314 1 gusting 6 16.7
2019-Mar-18 14:20 302 1 gusting 6 16.7
2019-Mar-18 14:15 113 2 gusting 6 16.7
2019-Mar-18 14:10 283 1 gusting 6 16.1
2019-Mar-18 14:05 346 0 gusting 5 16.1
2019-Mar-18 14:00 333 0 gusting 5 16.1
2019-Mar-18 13:55 314 0 gusting 5 16.1
2019-Mar-18 13:50 019 1 gusting 6 16.1
2019-Mar-18 13:45 113 1 gusting 6 16.1
2019-Mar-18 13:40 320 2 gusting 6 16.1
2019-Mar-18 13:35 316 2 gusting 7 16.1
2019-Mar-18 13:30 319 0 gusting 7 16.1
2019-Mar-18 13:24 302 0 gusting 5 16.1
2019-Mar-18 13:20 316 0 gusting 5 16.1
2019-Mar-18 13:14 321 0 gusting 6 16.1
2019-Mar-18 13:09 303 0 gusting 7 16.1
2019-Mar-18 13:04 326 0 gusting 7 16.1
2019-Mar-18 12:59 292 0 gusting 4 16.1
2019-Mar-18 12:54 330 0 gusting 4 15.6
2019-Mar-18 12:49 303 15.6
2019-Mar-18 12:44 294 15.6
2019-Mar-18 12:39 063 15.6
2019-Mar-18 12:34 327 15.6
2019-Mar-18 12:29 317 15.6
2019-Mar-18 12:24 338 15.6
2019-Mar-18 12:19 322 15.6
2019-Mar-18 12:14 338 15.6
2019-Mar-18 12:09 330 15.6
2019-Mar-18 12:04 330 15.6
2019-Mar-18 11:59 065 15.6
2019-Mar-18 11:54 038 15.6
2019-Mar-18 11:49 338 0 gusting 4 15.6
2019-Mar-18 11:44 330 0 gusting 4 15.6
2019-Mar-18 11:39 335 15.6
2019-Mar-18 11:34 340 0 gusting 3 15.6
2019-Mar-18 11:29 338 0 gusting 3 15.6
2019-Mar-18 11:24 342 15.6
2019-Mar-18 11:19 326 15.6
2019-Mar-18 11:14 005 0 gusting 5 15.6
2019-Mar-18 11:09 320 0 gusting 5 15.0
2019-Mar-18 11:04 346 0 gusting 5 15.0
2019-Mar-18 10:59 305 0 gusting 4 15.0
2019-Mar-18 10:54 341 0 gusting 6 15.0
2019-Mar-18 10:49 041 0 gusting 6 15.0
2019-Mar-18 10:44 056 0 gusting 6 15.6
2019-Mar-18 10:39 079 0 gusting 6 15.6
2019-Mar-18 10:34 307 0 gusting 5 15.6
2019-Mar-18 10:29 336 1 gusting 6 15.6
2019-Mar-18 10:24 343 0 gusting 6 15.6
2019-Mar-18 10:19 311 0 gusting 5 15.6
2019-Mar-18 10:14 343 0 gusting 5 15.6
2019-Mar-18 10:09 317 0 gusting 5 15.6
2019-Mar-18 10:04 347 0 gusting 5 15.6
2019-Mar-18 09:59 307 1 gusting 7 15.6
2019-Mar-18 09:54 299 2 gusting 7 15.6
2019-Mar-18 09:49 323 3 gusting 7 15.0
2019-Mar-18 09:44 303 1 gusting 7 15.0
2019-Mar-18 09:39 326 0 gusting 6 15.6
2019-Mar-18 09:34 333 0 gusting 6 15.0
2019-Mar-18 09:29 319 0 gusting 6 15.0
2019-Mar-18 09:24 320 15.0
2019-Mar-18 09:19 328 0 gusting 3 15.0
2019-Mar-18 09:14 217 15.0
2019-Mar-18 09:09 329 0 gusting 5 15.0
2019-Mar-18 09:04 027 0 gusting 5 15.0
2019-Mar-18 08:59 349 1 gusting 5 15.0
2019-Mar-18 08:54 309 0 gusting 4 15.0
2019-Mar-18 08:49 318 0 gusting 4 15.0
2019-Mar-18 08:44 299 0 gusting 3 15.0
2019-Mar-18 08:39 349 0 gusting 4 15.0
2019-Mar-18 08:34 084 0 gusting 4 15.0
2019-Mar-18 08:29 311 0 gusting 6 15.6
2019-Mar-18 08:24 333 1 gusting 6 15.6
2019-Mar-18 08:19 326 1 gusting 5 15.6
2019-Mar-18 08:14 334 1 gusting 5 15.6
2019-Mar-18 08:09 338 0 gusting 5 15.6
2019-Mar-18 08:04 311 0 gusting 4 15.6
2019-Mar-18 07:59 330 0 gusting 3 15.6
2019-Mar-18 07:54 238 15.6
2019-Mar-18 07:49 328 15.6
2019-Mar-18 07:44 039 15.6
2019-Mar-18 07:39 335 15.6
2019-Mar-18 07:34 323 15.6
2019-Mar-18 07:29 082 0 gusting 3 15.6
2019-Mar-18 07:24 311 0 gusting 5 15.6
2019-Mar-18 07:19 323 0 gusting 6 15.6
2019-Mar-18 07:14 316 1 gusting 6 15.6
2019-Mar-18 07:09 012 0 gusting 5 16.1
2019-Mar-18 07:04 143 0 gusting 7 16.1
2019-Mar-18 06:59 013 2 gusting 7 16.1
2019-Mar-18 06:54 351 2 gusting 7 16.1
2019-Mar-18 06:49 328 2 gusting 7 16.1
2019-Mar-18 06:44 322 2 gusting 7 16.1
2019-Mar-18 06:39 343 2 gusting 8 16.1
2019-Mar-18 06:34 280 1 gusting 8 16.7
2019-Mar-18 06:29 010 0 gusting 7 16.7
2019-Mar-18 06:24 317 1 gusting 5 16.7
2019-Mar-18 06:19 330 1 gusting 7 16.7
2019-Mar-18 06:14 305 1 gusting 7 16.7
2019-Mar-18 06:09 316 0 gusting 5 16.7
2019-Mar-18 06:04 042 0 gusting 4 16.7
2019-Mar-18 05:59 329 1 gusting 6 16.7
2019-Mar-18 05:54 325 1 gusting 7 16.7
2019-Mar-18 05:49 319 0 gusting 7 16.7
2019-Mar-18 05:44 321 0 gusting 5 16.7
2019-Mar-18 05:39 316 0 gusting 5 16.7
2019-Mar-18 05:34 335 0 gusting 2 17.2
2019-Mar-18 05:29 333 17.2
2019-Mar-18 05:24 332 0 gusting 2 17.2
2019-Mar-18 05:19 345 0 gusting 2 17.2
2019-Mar-18 05:14 317 0 gusting 2 17.2
2019-Mar-18 05:09 330 0 gusting 3 17.2
2019-Mar-18 05:04 338 0 gusting 3 17.2
2019-Mar-18 04:59 016 0 gusting 3 17.2
2019-Mar-18 04:54 319 0 gusting 3 17.2
2019-Mar-18 04:49 316 0 gusting 2 17.2
2019-Mar-18 04:44 337 0 gusting 2 17.2
2019-Mar-18 04:39 348 17.2
2019-Mar-18 04:34 342 17.2
2019-Mar-18 04:29 025 0 gusting 4 17.2
2019-Mar-18 04:24 087 0 gusting 4 17.2
2019-Mar-18 04:19 282 0 gusting 4 17.2
2019-Mar-18 04:14 098 17.2
2019-Mar-18 04:09 083 17.2
2019-Mar-18 04:04 002 17.8
2019-Mar-18 03:59 082 17.8
2019-Mar-18 03:54 081 17.8
2019-Mar-18 03:49 336 0 gusting 2 17.8
2019-Mar-18 03:44 338 17.8
2019-Mar-18 03:39 309 17.8
2019-Mar-18 03:33 310 0 gusting 4 17.8
2019-Mar-18 03:28 338 0 gusting 4 17.8
2019-Mar-18 03:23 336 17.8
2019-Mar-18 03:18 347 17.8
2019-Mar-18 03:13 354 17.8
2019-Mar-18 03:08 217 0 gusting 4 17.8
2019-Mar-18 03:03 033 0 gusting 4 17.8
2019-Mar-18 02:58 008 0 gusting 5 17.8
2019-Mar-18 02:53 316 0 gusting 5 17.8
2019-Mar-18 02:48 315 1 gusting 6 18.3
2019-Mar-18 02:43 322 1 gusting 6 18.3
2019-Mar-18 02:38 008 0 gusting 4 18.3
2019-Mar-18 02:33 333 0 gusting 4 18.3
2019-Mar-18 02:28 323 0 gusting 4 18.3
2019-Mar-18 02:23 352 0 gusting 4 18.3
2019-Mar-18 02:18 027 0 gusting 3 18.3
2019-Mar-18 02:13 316 0 gusting 3 18.3
2019-Mar-18 02:08 330 0 gusting 5 18.3
2019-Mar-18 02:03 349 0 gusting 5 18.9
2019-Mar-18 01:58 315 1 gusting 6 18.9
2019-Mar-18 01:53 356 2 gusting 6 18.9
2019-Mar-18 01:48 338 1 gusting 5 18.9
2019-Mar-18 01:43 333 0 gusting 5 18.9
2019-Mar-18 01:38 313 0 gusting 4 18.9
2019-Mar-18 01:33 331 0 gusting 4 18.9
2019-Mar-18 01:28 335 18.9
2019-Mar-18 01:23 322 0 gusting 1 18.9
2019-Mar-18 01:18 338 19.4
2019-Mar-18 01:13 335 19.4
2019-Mar-18 01:08 347 0 gusting 4 19.4
2019-Mar-18 01:03 317 0 gusting 5 19.4
2019-Mar-18 00:58 347 1 gusting 6 20.0
2019-Mar-18 00:53 332 1 gusting 6 20.0
2019-Mar-18 00:48 329 1 gusting 3 20.0
2019-Mar-18 00:43 328 1 gusting 5 20.0
2019-Mar-18 00:38 319 2 gusting 6 20.6
2019-Mar-18 00:33 317 1 gusting 6 20.6
2019-Mar-18 00:28 312 0 gusting 6 20.6
2019-Mar-18 00:23 317 0 gusting 6 20.6
2019-Mar-18 00:18 310 1 gusting 4 20.6
2019-Mar-18 00:13 341 0 gusting 4 20.6
2019-Mar-18 00:08 332 1 gusting 4 20.6
2019-Mar-18 00:03 311 0 gusting 4 20.6
2019-Mar-17 23:58 332 0 gusting 3 20.6
2019-Mar-17 23:53 328 0 gusting 5 20.6
2019-Mar-17 23:48 001 0 gusting 5 21.1
2019-Mar-17 23:43 338 0 gusting 3 21.1
2019-Mar-17 23:38 314 0 gusting 4 21.1
2019-Mar-17 23:33 322 1 gusting 5 21.1
2019-Mar-17 23:28 312 0 gusting 5 21.1
2019-Mar-17 23:23 318 0 gusting 4 21.1
2019-Mar-17 23:18 318 1 gusting 5 21.1
2019-Mar-17 23:13 335 1 gusting 5 21.1
2019-Mar-17 23:08 001 0 gusting 4 21.1
2019-Mar-17 23:03 328 1 gusting 6 21.1
2019-Mar-17 22:58 314 1 gusting 6 21.1
2019-Mar-17 22:53 008 1 gusting 6 21.7
2019-Mar-17 22:48 323 1 gusting 4 21.7
2019-Mar-17 22:43 330 0 gusting 4 21.7
2019-Mar-17 22:38 342 1 gusting 4 21.7
2019-Mar-17 22:33 301 0 gusting 4 21.7
2019-Mar-17 22:28 334 0 gusting 3 21.7
2019-Mar-17 22:23 328 1 gusting 5 21.7
2019-Mar-17 22:18 326 1 gusting 5 21.7
2019-Mar-17 22:13 311 0 gusting 3 21.7
2019-Mar-17 22:08 351 0 gusting 3 21.7
2019-Mar-17 22:03 330 1 gusting 6 21.7
2019-Mar-17 21:58 319 1 gusting 6 21.7
2019-Mar-17 21:53 347 0 gusting 4 21.7
2019-Mar-17 21:48 330 1 gusting 5 21.7
2019-Mar-17 21:43 347 1 gusting 5 21.7
2019-Mar-17 21:38 341 1 gusting 4 22.2
2019-Mar-17 21:33 354 1 gusting 4 22.2
2019-Mar-17 21:28 319 1 gusting 5 22.2
2019-Mar-17 21:23 316 0 gusting 5 22.2
2019-Mar-17 21:18 001 0 gusting 5 22.2
2019-Mar-17 21:13 322 1 gusting 5 22.8
2019-Mar-17 21:08 340 1 gusting 4 22.8
2019-Mar-17 21:03 328 0 gusting 4 22.8
2019-Mar-17 20:58 314 0 gusting 3 22.8
2019-Mar-17 20:53 323 22.8
2019-Mar-17 20:48 322 22.8
2019-Mar-17 20:43 321 0 gusting 2 22.8
2019-Mar-17 20:38 314 0 gusting 2 23.3
2019-Mar-17 20:33 048 23.3
2019-Mar-17 20:28 058 22.8
2019-Mar-17 20:23 326 0 gusting 4 22.8
2019-Mar-17 20:18 336 0 gusting 4 22.8
2019-Mar-17 20:13 324 0 gusting 4 22.8
2019-Mar-17 20:08 039 22.8
2019-Mar-17 20:03 296 22.2
2019-Mar-17 19:58 321 21.7
2019-Mar-17 19:53 328 21.7
2019-Mar-17 19:48 314 21.7
2019-Mar-17 19:43 137 21.7
2019-Mar-17 19:38 316 21.7
2019-Mar-17 19:33 335 21.7
2019-Mar-17 19:28 333 22.2
2019-Mar-17 19:23 334 22.2
2019-Mar-17 19:18 333 21.7
2019-Mar-17 19:13 027 21.7
2019-Mar-17 19:08 060 0 gusting 3 22.2
2019-Mar-17 19:03 108 22.2
2019-Mar-17 18:58 359 22.2
2019-Mar-17 18:53 039 22.2
2019-Mar-17 18:48 072 22.8
2019-Mar-17 18:43 310 22.8
2019-Mar-17 18:38 338 22.8
2019-Mar-17 18:33 356 0 gusting 4 23.3
2019-Mar-17 18:28 349 0 gusting 4 23.3
2019-Mar-17 18:23 085 0 gusting 4 23.3
2019-Mar-17 18:18 041 0 gusting 4 23.3
2019-Mar-17 18:13 075 1 gusting 4 23.3
2019-Mar-17 18:08 144 1 gusting 4 23.3
2019-Mar-17 18:03 063 0 gusting 3 23.3
2019-Mar-17 17:58 309 1 gusting 4 23.9
2019-Mar-17 17:53 116 1 gusting 6 23.9
2019-Mar-17 17:48 088 1 gusting 6 23.9
2019-Mar-17 17:43 123 0 gusting 4 23.9
2019-Mar-17 17:38 064 0 gusting 3 23.9
2019-Mar-17 17:33 082 0 gusting 3 23.3
2019-Mar-17 17:28 334 0 gusting 4 23.3
2019-Mar-17 17:23 350 0 gusting 4 23.3
2019-Mar-17 17:18 313 0 gusting 3 23.3
2019-Mar-17 17:13 352 23.3
2019-Mar-17 17:08 314 23.3
2019-Mar-17 17:03 324 22.8
2019-Mar-17 16:58 342 22.8
2019-Mar-17 16:53 340 0 gusting 3 22.2
2019-Mar-17 16:48 314 0 gusting 3 21.7
2019-Mar-17 16:43 321 0 gusting 2 21.7
2019-Mar-17 16:38 321 0 gusting 3 21.7
2019-Mar-17 16:33 325 0 gusting 3 21.7
2019-Mar-17 16:28 346 0 gusting 3 21.1
2019-Mar-17 16:23 041 0 gusting 3 21.1
2019-Mar-17 16:18 314 0 gusting 5 21.7
2019-Mar-17 16:13 327 1 gusting 5 21.7
2019-Mar-17 16:08 338 0 gusting 5 21.7
2019-Mar-17 16:03 323 0 gusting 5 21.7
2019-Mar-17 15:57 323 1 gusting 5 21.1
2019-Mar-17 15:53 321 1 gusting 5 21.7
2019-Mar-17 15:47 333 1 gusting 4 21.7
2019-Mar-17 15:42 324 2 gusting 5 21.7
2019-Mar-17 15:37 326 1 gusting 5 21.7
2019-Mar-17 15:32 328 0 gusting 5 21.7
2019-Mar-17 15:27 329 0 gusting 5 21.7
2019-Mar-17 15:22 330 0 gusting 3 21.7
2019-Mar-17 15:17 306 21.7
2019-Mar-17 15:12 345 21.7
2019-Mar-17 15:07 327 21.7
2019-Mar-17 15:02 357 21.7
2019-Mar-17 14:57 352 21.7
2019-Mar-17 14:52 342 0 gusting 4 21.7
2019-Mar-17 14:47 307 21.1
2019-Mar-17 14:42 21.1
2019-Mar-17 14:37 324 0 gusting 2 20.6
2019-Mar-17 14:32 340 0 gusting 4 20.6
2019-Mar-17 14:27 103 0 gusting 4 20.6
2019-Mar-17 14:22 076 0 gusting 4 20.6
2019-Mar-17 14:17 317 0 gusting 3 20.0
2019-Mar-17 14:12 021 20.0
2019-Mar-17 14:07 015 0 gusting 2 20.0
2019-Mar-17 14:02 339 0 gusting 2 19.4
2019-Mar-17 13:57 353 19.4
2019-Mar-17 13:52 324 0 gusting 5 19.4
2019-Mar-17 13:47 300 0 gusting 5 18.9
2019-Mar-17 13:42 086 19.4
2019-Mar-17 13:37 332 18.9
2019-Mar-17 13:32 356 18.9
2019-Mar-17 13:27 307 18.9
2019-Mar-17 13:22 033 18.9
2019-Mar-17 13:17 077 0 gusting 3 18.3
2019-Mar-17 13:12 319 0 gusting 3 18.3
2019-Mar-17 13:07 327 18.3
2019-Mar-17 13:02 340 0 gusting 4 18.3
2019-Mar-17 12:57 311 0 gusting 4 18.3
2019-Mar-17 12:52 324 0 gusting 4 18.3
2019-Mar-17 12:47 348 18.3
2019-Mar-17 12:42 322 18.3
2019-Mar-17 12:37 336 18.3
2019-Mar-17 12:32 077 18.3
2019-Mar-17 12:27 345 18.3
2019-Mar-17 12:22 354 18.3
2019-Mar-17 12:17 044 18.3
2019-Mar-17 12:12 061 0 gusting 2 18.3
2019-Mar-17 12:07 072 0 gusting 3 18.3
2019-Mar-17 12:01 052 0 gusting 4 18.3
2019-Mar-17 11:56 091 18.3
2019-Mar-17 11:51 108 0 gusting 4 18.3
2019-Mar-17 11:46 001 0 gusting 4 18.3
2019-Mar-17 11:41 049 18.3
2019-Mar-17 11:36 063 0 gusting 2 18.3
2019-Mar-17 11:31 101 18.3
2019-Mar-17 11:24 075 18.3
2019-Mar-17 11:19 324 18.3
2019-Mar-17 11:14 328 18.3
2019-Mar-17 11:09 321 18.3
2019-Mar-17 11:04 094 18.3
2019-Mar-17 10:59 113 18.3
2019-Mar-17 10:54 323 18.3
2019-Mar-17 10:49 326 18.9
2019-Mar-17 10:44 339 18.9
2019-Mar-17 10:39 342 18.9
2019-Mar-17 10:34 314 18.9
2019-Mar-17 10:29 345 18.9
2019-Mar-17 10:24 035 18.9
2019-Mar-17 10:19 011 18.9
2019-Mar-17 10:14 121 0 gusting 2 18.9
2019-Mar-17 10:09 040 0 gusting 2 18.9
2019-Mar-17 10:04 311 18.9
2019-Mar-17 09:59 323 18.9
2019-Mar-17 09:53 307 18.9
2019-Mar-17 09:48 046 18.9
2019-Mar-17 09:43 070 18.9
2019-Mar-17 09:38 048 18.9
2019-Mar-17 09:33 041 18.9
2019-Mar-17 09:28 090 18.9
2019-Mar-17 09:23 042 19.4
2019-Mar-17 09:18 068 19.4
2019-Mar-17 09:13 063 0 gusting 4 19.4
2019-Mar-17 09:08 045 19.4
2019-Mar-17 09:03 010 19.4
2019-Mar-17 08:58 329 19.4
2019-Mar-17 08:53 328 0 gusting 5 19.4
2019-Mar-17 08:48 324 0 gusting 5 19.4
2019-Mar-17 08:43 006 19.4
2019-Mar-17 08:38 044 19.4
2019-Mar-17 08:33 338 19.4
2019-Mar-17 08:28 338 19.4
2019-Mar-17 08:23 165 19.4
2019-Mar-17 08:18 330 19.4
2019-Mar-17 08:13 340 0 gusting 3 19.4
2019-Mar-17 08:08 327 0 gusting 3 19.4
2019-Mar-17 08:03 281 19.4
2019-Mar-17 07:58 311 19.4
2019-Mar-17 07:53 308 19.4
2019-Mar-17 07:48 032 19.4
2019-Mar-17 07:43 082 19.4
2019-Mar-17 07:38 349 19.4
2019-Mar-17 07:33 062 19.4
2019-Mar-17 07:28 091 19.4
2019-Mar-17 07:23 276 19.4
2019-Mar-17 07:18 072 19.4
2019-Mar-17 07:13 314 19.4
2019-Mar-17 07:08 049 19.4
2019-Mar-17 07:03 052 19.4
2019-Mar-17 06:58 016 19.4
2019-Mar-17 06:53 037 19.4
2019-Mar-17 06:48 349 19.4
2019-Mar-17 06:43 039 19.4
2019-Mar-17 06:38 049 19.4
2019-Mar-17 06:33 086 19.4
2019-Mar-17 06:28 331 19.4
2019-Mar-17 06:23 039 19.4
2019-Mar-17 06:18 342 19.4
2019-Mar-17 06:13 069 19.4
2019-Mar-17 06:08 219 19.4
2019-Mar-17 06:03 064 0 gusting 2 19.4
2019-Mar-17 05:58 046 19.4
2019-Mar-17 05:53 098 19.4
2019-Mar-17 05:48 001 0 gusting 3 19.4
2019-Mar-17 05:43 082 0 gusting 4 19.4
2019-Mar-17 05:38 295 0 gusting 4 19.4
2019-Mar-17 05:33 044 0 gusting 4 19.4
2019-Mar-17 05:28 086 0 gusting 4 19.4
2019-Mar-17 05:23 032 0 gusting 4 20.0
2019-Mar-17 05:18 001 0 gusting 4 20.0
2019-Mar-17 05:13 137 0 gusting 6 20.0
2019-Mar-17 05:08 347 1 gusting 6 20.0
2019-Mar-17 05:03 130 0 gusting 5 20.0
2019-Mar-17 04:58 053 0 gusting 5 20.0
2019-Mar-17 04:53 086 0 gusting 5 20.0
2019-Mar-17 04:48 055 1 gusting 6 20.0
2019-Mar-17 04:43 352 0 gusting 6 20.0
2019-Mar-17 04:38 086 0 gusting 5 20.6
2019-Mar-17 04:33 338 0 gusting 5 20.6
2019-Mar-17 04:28 345 1 gusting 6 20.6
2019-Mar-17 04:23 053 0 gusting 6 20.6
2019-Mar-17 04:18 029 20.6
2019-Mar-17 04:13 344 0 gusting 4 20.6
2019-Mar-17 04:08 071 0 gusting 4 20.6
2019-Mar-17 04:03 051 0 gusting 6 21.1
2019-Mar-17 03:58 326 0 gusting 6 21.1
2019-Mar-17 03:53 340 0 gusting 4 21.1
2019-Mar-17 03:48 321 0 gusting 3 21.1
2019-Mar-17 03:43 311 0 gusting 5 21.1
2019-Mar-17 03:38 298 0 gusting 5 21.1
2019-Mar-17 03:33 305 0 gusting 4 21.1
2019-Mar-17 03:28 312 0 gusting 5 21.1
2019-Mar-17 03:23 315 0 gusting 5 21.1
2019-Mar-17 03:18 315 0 gusting 4 21.1
2019-Mar-17 03:12 054 0 gusting 4 21.1
2019-Mar-17 03:08 066 21.1
2019-Mar-17 03:03 030 21.1
2019-Mar-17 02:57 341 21.1
2019-Mar-17 02:52 341 21.1
2019-Mar-17 02:47 341 21.1
2019-Mar-17 02:42 341 21.1
2019-Mar-17 02:37 341 21.1
2019-Mar-17 02:32 348 21.1
2019-Mar-17 02:27 348 21.1
2019-Mar-17 02:22 348 21.1
2019-Mar-17 02:17 349 21.1
2019-Mar-17 02:12 349 21.1
2019-Mar-17 02:07 349 21.1
2019-Mar-17 02:02 026 21.1
2019-Mar-17 01:57 027 21.1
2019-Mar-17 01:52 027 21.1
2019-Mar-17 01:47 027 21.1
2019-Mar-17 01:42 027 21.7
2019-Mar-17 01:37 321 0 gusting 2 21.7
2019-Mar-17 01:32 321 0 gusting 3 21.7
2019-Mar-17 01:27 332 0 gusting 3 21.7
2019-Mar-17 01:22 335 0 gusting 3 21.7
2019-Mar-17 01:17 328 0 gusting 3 21.7
2019-Mar-17 01:12 324 0 gusting 2 21.7
2019-Mar-17 01:07 319 21.7
2019-Mar-17 01:02 329 21.7